Change the Weather History Date:

Friday, May 23, 2014

  Actual Average Record
Temperature  
Mean Temperature 62 °F -  
Max Temperature 72 °F 73 °F 93 °F (1984)
Min Temperature 53 °F 47 °F 40 °F (1960)
Degree Days  
Heating Degree Days 2    
Growing Degree Days 12 (Base 50)    
Moisture  
Dew Point 51 °F    
Average Humidity 75    
Maximum Humidity 84    
Minimum Humidity 51    
Precipitation  
Precipitation 0.00 in - - ()
Sea Level Pressure  
Sea Level Pressure 30.01 in    
Wind  
Wind Speed 7 mph (NW)    
Max Wind Speed 22 mph    
Max Gust Speed -    
Visibility 10 miles    
Events      
Averages and records for this station are not official NWS values.
T = Trace of Precipitation, MM = Missing Value Source: NWS Daily Summary

Daily Weather History Graph

Daily Weather History Graph

Search for Another Location

Airport or City:

Trip Planner

Search our weather history database for the weather conditions in past years. The results will help you decide how hot, cold, wet, or windy it might be!

Date:

Astronomy

May. 23, 2014 Rise Set
Actual Time 5:53 AM PDT 8:05 PM PDT
Civil Twilight 5:24 AM PDT 8:34 PM PDT
Nautical Twilight 4:49 AM PDT 9:10 PM PDT
Astronomical Twilight 4:11 AM PDT 9:48 PM PDT
Moon 2:38 AM PDT (5/23) 3:15 PM PDT (5/23)
Length of Visible Light 15h 10m
Length of Day
14h 12m
Waning Crescent, 26% of the Moon is Illuminated
May 23
Waning Crescent
May 28
New
Jun 5
First Quarter
Jun 12
Full
Jun 19
Last Quarter

Hourly Weather History & Observations

Time (PDT) Temp. Dew Point Humidity Pressure Visibility Wind Dir Wind Speed Gust Speed Precip Events Conditions
12:52 AM 57.2 °F 51.8 °F 82% 30.02 in 10.0 mi NW 8.1 mph - N/A   Mostly Cloudy
12:56 AM 57.0 °F 51.1 °F 81% 30.02 in 10.0 mi NW 8.1 mph - N/A   Mostly Cloudy
1:56 AM 57.0 °F 51.1 °F 81% 30.01 in 10.0 mi NW 5.8 mph - N/A   Overcast
2:56 AM 57.0 °F 51.1 °F 81% 30.01 in 10.0 mi WNW 3.5 mph - N/A   Overcast
3:53 AM 55.4 °F 48.2 °F 77% 30.00 in 10.0 mi Calm Calm - N/A   Scattered Clouds
3:56 AM 54.0 °F 48.9 °F 83% 30.00 in 10.0 mi Calm Calm - N/A   Partly Cloudy
4:56 AM 53.1 °F 48.0 °F 83% 30.01 in 10.0 mi West 3.5 mph - N/A   Clear
5:44 AM 53.6 °F 48.2 °F 82% 30.01 in 10.0 mi NW 3.5 mph - N/A   Mostly Cloudy
5:52 AM 53.6 °F 48.2 °F 82% 30.01 in 10.0 mi NW 4.6 mph - N/A   Mostly Cloudy
5:56 AM 54.0 °F 48.9 °F 83% 30.01 in 10.0 mi NNW 4.6 mph - N/A   Mostly Cloudy
6:56 AM 55.9 °F 51.1 °F 84% 30.02 in 10.0 mi NW 5.8 mph - N/A   Mostly Cloudy
7:47 AM 57.2 °F 51.8 °F 82% 30.03 in 10.0 mi NW 6.9 mph - N/A   Scattered Clouds
7:56 AM 57.9 °F 51.1 °F 78% 30.04 in 10.0 mi NNW 5.8 mph - N/A   Scattered Clouds
8:56 AM 62.1 °F 51.1 °F 67% 30.04 in 10.0 mi NW 8.1 mph - N/A   Clear
9:56 AM 64.9 °F 52.0 °F 63% 30.04 in 10.0 mi WNW 10.4 mph - N/A   Partly Cloudy
10:56 AM 69.1 °F 52.0 °F 54% 30.03 in 10.0 mi NW 6.9 mph - N/A   Clear
11:56 AM 72.0 °F 53.1 °F 51% 30.02 in 10.0 mi WNW 11.5 mph - N/A   Clear
1:56 PM 69.1 °F 52.0 °F 54% 30.00 in 10.0 mi NW 17.3 mph - N/A   Clear
2:56 PM 69.1 °F 52.0 °F 54% 29.99 in 10.0 mi NW 16.1 mph - N/A   Clear
3:56 PM 68.0 °F 52.0 °F 56% 29.99 in 10.0 mi NW 15.0 mph - N/A   Clear
4:56 PM 64.9 °F 52.0 °F 63% 29.99 in 10.0 mi NW 21.9 mph - N/A   Clear
5:56 PM 60.1 °F 52.0 °F 75% 29.99 in 10.0 mi NW 16.1 mph - N/A   Scattered Clouds
6:56 PM 57.9 °F 52.0 °F 81% 29.99 in 10.0 mi NW 13.8 mph - N/A   Scattered Clouds
7:56 PM 57.0 °F 52.0 °F 83% 30.00 in 10.0 mi NW 10.4 mph - N/A   Scattered Clouds
8:05 PM 57.2 °F 51.8 °F 82% 30.00 in 10.0 mi WNW 10.4 mph - N/A   Mostly Cloudy
8:56 PM 57.0 °F 52.0 °F 83% 30.02 in 10.0 mi NW 9.2 mph - N/A   Overcast
9:56 PM 57.0 °F 51.1 °F 81% 30.03 in 10.0 mi NW 4.6 mph - N/A   Overcast
10:56 PM 57.0 °F 52.0 °F 83% 30.03 in 10.0 mi Variable 3.5 mph - N/A   Overcast
11:56 PM 57.0 °F 52.0 °F 83% 30.03 in 10.0 mi Calm Calm - N/A   Overcast